Вернуться в каталог

STARLINK-35230

АктивенСвязьVLEO
NORAD 65681·PAYLOAD·🇺🇸 United States

Запущен Sep 21, 2025 с Cape Canaveral Space Force Station

Loading…

Ближайшие Пролёты (ближайшие 24 часа)

TLE

СвежийSource: CelesTrak SupGP

Эпоха: Sep 14, 2026, 20:54 UTC

1 65681C 25212F   26257.87131944  .00013778  00000+0  40699-3 0  2570
2 65681  53.1570 183.8559 0001224  91.8098 197.9003 15.34389735    10

Отслеживайте STARLINK-35230 в реальном времени с AllMySat

Download on the App Store